EW9439 Weather Reports


time (UTC)temp
F
wind
direction
speed
knots
gust
knots
rain 1hr
in
rain 24hr
in
rain mn
in
humidity
%
barometer
mb
20260506033033 71 165 0.0 0.0 0.00 0.00 0.00 52 1010.2
20260506031532 71 177 0.0 0.0 0.00 0.00 0.00 51 1010.1
20260506030034 71 169 0.0 3.5 0.00 0.00 0.00 49 1010.1
20260506024535 70 360 0.0 0.9 0.00 0.00 0.00 50 1010.4
20260506023043 71 360 0.0 0.0 0.00 0.00 0.00 49 1010.2
20260506021537 71 360 0.0 0.0 0.00 0.00 0.00 48 1010.1
20260506020115 71 360 0.0 0.0 0.00 0.00 0.00 48 1009.8
20260506014551 71 340 0.0 0.0 0.00 0.00 0.00 48 1009.9
20260506013016 71 340 0.0 0.0 0.00 0.00 0.00 49 1009.9
20260506011516 71 340 0.0 0.0 0.00 0.00 0.00 48 1009.6
20260506010037 72 340 0.0 0.0 0.00 0.00 0.00 47 1009.7
20260506004541 72 340 0.0 0.0 0.00 0.00 0.00 47 1009.8
20260506003025 73 269 0.0 0.0 0.00 0.00 0.00 47 1009.9
20260506001527 73 269 0.0 0.0 0.00 0.00 0.00 48 1009.8
20260506000048 74 269 0.0 0.0 0.00 0.00 0.00 48 1009.7
20260505234534 75 198 0.0 0.0 0.00 0.00 0.00 46 1009.7
20260505233033 75 198 0.0 0.0 0.00 0.00 0.00 45 1009.6
20260505231538 76 230 0.0 0.0 0.00 0.00 0.00 46 1009.6
20260505230045 76 230 0.0 0.0 0.00 0.00 0.00 44 1009.5
20260505224548 76 153 0.0 0.0 0.00 0.00 0.00 44 1009.7
20260505223007 76 55 0.0 0.0 0.00 0.00 0.00 44 1009.6
20260505221603 77 229 0.0 1.7 0.00 0.00 0.00 41 1009.6
20260505221506 77 229 0.0 1.7 0.00 0.00 0.00 41 1009.6
20260505220008 77 177 0.0 1.7 0.00 0.00 0.00 41 1009.3
20260505214512 77 165 0.0 0.0 0.00 0.00 0.00 41 1009.7
20260505213016 77 151 0.0 0.0 0.00 0.00 0.00 42 1009.7
20260505211528 77 136 0.0 3.5 0.00 0.00 0.00 40 1009.9
20260505210044 78 184 0.0 0.9 0.00 0.00 0.00 39 1009.8
20260505204555 78 64 0.0 0.9 0.00 0.00 0.00 41 1010.1
20260505203044 79 117 0.0 3.5 0.00 0.00 0.00 40 1010.2
20260505201546 78 123 0.0 0.0 0.00 0.00 0.00 41 1010.2
20260505200008 79 204 0.0 1.7 0.00 0.00 0.00 40 1010.5
20260505194508 79 221 0.0 0.0 0.00 0.00 0.00 40 1010.9
20260505193010 78 86 0.0 0.0 0.00 0.00 0.00 40 1011.0
20260505191514 77 337 0.0 1.7 0.00 0.00 0.00 45 1011.0
20260505190013 78 234 0.0 0.9 0.00 0.00 0.00 41 1011.1
20260505184514 78 83 0.0 0.0 0.00 0.00 0.00 43 1011.2
20260505183016 77 206 0.0 0.0 0.00 0.00 0.00 42 1011.2
20260505181524 77 94 0.0 0.9 0.00 0.00 0.00 41 1011.6
20260505180030 76 130 0.0 0.0 0.00 0.00 0.00 47 1011.9
20260505174538 76 126 0.0 0.0 0.00 0.00 0.00 45 1012.0
20260505173033 77 24 0.0 0.0 0.00 0.00 0.00 45 1012.4
20260505171541 77 174 0.0 0.9 0.00 0.00 0.00 44 1012.3
20260505170039 76 350 0.0 0.9 0.00 0.00 0.00 47 1012.4
20260505164526 77 169 0.0 3.5 0.00 0.00 0.00 47 1012.3
20260505163026 75 190 0.0 0.0 0.00 0.00 0.00 49 1012.3
20260505161547 75 187 0.0 1.7 0.00 0.00 0.00 48 1012.4
20260505153055 75 313 0.0 0.0 0.00 0.00 0.00 50 1012.7
20260505151602 74 205 0.0 0.0 0.00 0.00 0.00 49 1012.6
20260505140109 65 98 0.0 0.9 0.00 0.00 0.00 71 1012.7
20260505124525 55 87 0.0 0.0 0.00 0.00 0.00 85 1012.4
20260505123044 53 87 0.0 0.0 0.00 0.00 0.00 87 1012.3
20260505121513 51 87 0.0 0.0 0.00 0.00 0.00 90 1012.2
20260505120015 50 87 0.0 0.0 0.00 0.00 0.00 90 1012.2
20260505114519 49 87 0.0 0.0 0.00 0.00 0.00 90 1012.0
20260505113020 49 87 0.0 0.0 0.00 0.00 0.00 90 1011.7
20260505111532 48 87 0.0 0.0 0.00 0.00 0.00 90 1011.5
20260505110105 48 87 0.0 0.0 0.00 0.00 0.00 89 1011.3
20260505101547 49 87 0.0 0.0 0.00 0.00 0.00 89 1011.2
20260505100047 49 87 0.0 0.0 0.00 0.00 0.00 89 1011.5
20260505094547 49 87 0.0 0.0 0.00 0.00 0.00 89 1011.5
20260505093050 49 87 0.0 0.0 0.00 0.00 0.00 88 1011.3
20260505091555 50 87 0.0 0.0 0.00 0.00 0.00 88 1011.3
20260505090050 50 87 0.0 0.0 0.00 0.00 0.00 88 1011.7
20260505084603 50 87 0.0 0.0 0.00 0.00 0.00 87 1011.7
20260505083111 50 87 0.0 0.0 0.00 0.00 0.00 87 1011.5
20260505081502 51 87 0.0 0.0 0.00 0.00 0.00 86 1011.6
20260505080007 51 87 0.0 0.0 0.00 0.00 0.00 86 1011.7
20260505074505 51 87 0.0 0.0 0.00 0.00 0.00 85 1011.6
20260505073008 51 87 0.0 0.0 0.00 0.00 0.00 85 1011.6
20260505071527 52 87 0.0 0.0 0.00 0.00 0.00 84 1011.7
20260505070030 52 87 0.0 0.0 0.00 0.00 0.00 83 1011.7
20260505064533 52 87 0.0 0.0 0.00 0.00 0.00 83 1011.7
20260505063028 53 87 0.0 0.0 0.00 0.00 0.00 82 1011.7
20260505061530 53 87 0.0 0.0 0.00 0.00 0.00 82 1011.8
20260505060033 53 87 0.0 0.0 0.00 0.00 0.00 81 1011.9
20260505054545 53 87 0.0 0.0 0.00 0.00 0.00 81 1012.0
20260505053038 54 87 0.0 0.0 0.00 0.00 0.00 80 1012.0
20260505051540 54 87 0.0 0.0 0.00 0.00 0.00 79 1012.0
20260505041545 57 87 0.0 0.0 0.00 0.00 0.00 74 1011.8
20260505040013 57 87 0.0 0.0 0.00 0.00 0.00 73 1011.8
20260505034507 58 87 0.0 0.0 0.00 0.00 0.00 71 1012.0